TimeMST,TemperatureF,Dew PointF,Humidity,Sea Level PressureIn,VisibilityMPH,Wind Direction,Wind SpeedMPH,Gust SpeedMPH,PrecipitationIn,Events,Conditions,WindDirDegrees,DateUTC
12:15 AM,37.4,15.8,41,30.20,10.0,WSW,20.7,27.6,N/A,,Overcast,250,2013-03-01 07:15:00
12:35 AM,37.4,17.6,45,30.22,10.0,West,19.6,25.3,N/A,,Overcast,270,2013-03-01 07:35:00
12:55 AM,37.4,17.6,45,30.22,10.0,West,17.3,26.5,N/A,,Overcast,270,2013-03-01 07:55:00
1:15 AM,37.4,17.6,45,30.23,10.0,West,12.7,18.4,N/A,,Overcast,270,2013-03-01 08:15:00
1:35 AM,37.4,15.8,41,30.22,10.0,WSW,9.2,-,N/A,,Overcast,250,2013-03-01 08:35:00
3:15 AM,35.6,17.6,48,30.21,10.0,WNW,11.5,16.1,N/A,,Scattered Clouds,290,2013-03-01 10:15:00
3:35 AM,35.6,17.6,48,30.21,10.0,WNW,6.9,-,N/A,,Mostly Cloudy,290,2013-03-01 10:35:00
3:56 AM,37.4,19.4,48,30.23,10.0,WNW,9.2,-,N/A,,Mostly Cloudy,300,2013-03-01 10:56:00
4:15 AM,37.4,19.4,48,30.22,10.0,WNW,9.2,16.1,N/A,,Scattered Clouds,290,2013-03-01 11:15:00
4:35 AM,35.6,19.4,52,30.22,10.0,WNW,6.9,-,N/A,,Clear,300,2013-03-01 11:35:00
5:15 AM,35.6,19.4,52,30.23,10.0,WNW,6.9,-,N/A,,Clear,300,2013-03-01 12:15:00
5:35 AM,35.6,19.4,52,30.23,10.0,West,4.6,-,N/A,,Clear,280,2013-03-01 12:35:00
5:55 AM,35.6,19.4,52,30.23,10.0,WSW,5.8,-,N/A,,Clear,250,2013-03-01 12:55:00
6:35 AM,39.2,21.2,49,30.22,10.0,West,8.1,-,N/A,,Clear,260,2013-03-01 13:35:00
6:55 AM,39.2,21.2,49,30.23,10.0,NW,4.6,-,N/A,,Clear,320,2013-03-01 13:55:00
7:15 AM,37.4,21.2,52,30.24,10.0,West,4.6,-,N/A,,Partly Cloudy,280,2013-03-01 14:15:00
7:35 AM,35.6,19.4,52,30.26,10.0,East,6.9,-,N/A,,Scattered Clouds,80,2013-03-01 14:35:00
8:15 AM,39.2,21.2,49,30.27,10.0,Calm,Calm,-,N/A,,Scattered Clouds,0,2013-03-01 15:15:00
8:35 AM,44.6,24.8,46,30.26,10.0,WSW,10.4,18.4,N/A,,Mostly Cloudy,250,2013-03-01 15:35:00
9:15 AM,46.4,23.0,40,30.26,10.0,WSW,11.5,24.2,N/A,,Overcast,250,2013-03-01 16:15:00
9:35 AM,44.6,23.0,43,30.26,10.0,WSW,18.4,26.5,N/A,,Overcast,240,2013-03-01 16:35:00
9:55 AM,44.6,24.8,46,30.26,10.0,West,13.8,23.0,N/A,,Overcast,260,2013-03-01 16:55:00
10:35 AM,46.4,23.0,40,30.25,10.0,WSW,15.0,28.8,N/A,,Overcast,250,2013-03-01 17:35:00
11:15 AM,48.2,24.8,40,30.23,10.0,WSW,15.0,26.5,N/A,,Overcast,250,2013-03-01 18:15:00
11:35 AM,51.8,24.8,35,30.23,10.0,West,13.8,26.5,N/A,,Mostly Cloudy,260,2013-03-01 18:35:00
11:55 AM,51.8,24.8,35,30.23,10.0,WNW,12.7,21.9,N/A,,Scattered Clouds,290,2013-03-01 18:55:00
1:15 PM,53.6,24.8,33,30.21,10.0,NW,3.5,-,N/A,,Mostly Cloudy,320,2013-03-01 20:15:00
1:35 PM,53.6,24.8,33,30.20,10.0,WSW,9.2,-,N/A,,Scattered Clouds,240,2013-03-01 20:35:00
1:55 PM,55.4,26.6,33,30.19,10.0,WNW,10.4,19.6,N/A,,Clear,300,2013-03-01 20:55:00
2:15 PM,55.4,24.8,31,30.19,10.0,West,12.7,21.9,N/A,,Clear,270,2013-03-01 21:15:00
2:35 PM,55.4,24.8,31,30.20,10.0,WNW,13.8,21.9,N/A,,Clear,290,2013-03-01 21:35:00
2:55 PM,53.6,24.8,33,30.21,10.0,WNW,12.7,24.2,N/A,,Clear,290,2013-03-01 21:55:00
3:15 PM,53.6,26.6,35,30.22,10.0,WSW,12.7,21.9,N/A,,Clear,240,2013-03-01 22:15:00
3:35 PM,50.0,24.8,37,30.22,10.0,West,13.8,24.2,N/A,,Clear,260,2013-03-01 22:35:00
3:55 PM,48.2,24.8,40,30.23,10.0,West,15.0,27.6,N/A,,Clear,280,2013-03-01 22:55:00
4:15 PM,51.8,26.6,38,30.22,10.0,West,15.0,20.7,N/A,,Mostly Cloudy,270,2013-03-01 23:15:00
4:35 PM,51.8,24.8,35,30.23,10.0,WSW,15.0,31.1,N/A,,Overcast,250,2013-03-01 23:35:00
4:55 PM,50.0,24.8,37,30.23,10.0,West,18.4,39.1,N/A,,Overcast,260,2013-03-01 23:55:00
5:15 PM,48.2,24.8,40,30.23,10.0,WSW,15.0,32.2,N/A,,Mostly Cloudy,250,2013-03-02 00:15:00
5:35 PM,48.2,24.8,40,30.23,10.0,West,13.8,24.2,N/A,,Mostly Cloudy,270,2013-03-02 00:35:00
5:55 PM,46.4,24.8,43,30.23,10.0,West,18.4,26.5,N/A,,Partly Cloudy,260,2013-03-02 00:55:00
6:15 PM,46.4,24.8,43,30.24,10.0,WSW,19.6,25.3,N/A,,Clear,250,2013-03-02 01:15:00
6:35 PM,44.6,24.8,46,30.24,10.0,West,16.1,25.3,N/A,,Clear,260,2013-03-02 01:35:00
6:55 PM,44.6,24.8,46,30.25,10.0,West,16.1,25.3,N/A,,Partly Cloudy,260,2013-03-02 01:55:00
7:15 PM,46.4,24.8,43,30.24,10.0,WSW,16.1,33.4,N/A,,Partly Cloudy,250,2013-03-02 02:15:00
7:35 PM,44.6,24.8,46,30.25,10.0,West,16.1,28.8,N/A,,Clear,260,2013-03-02 02:35:00
8:15 PM,44.6,24.8,46,30.25,10.0,West,13.8,21.9,N/A,,Clear,270,2013-03-02 03:15:00
8:35 PM,44.6,24.8,46,30.25,10.0,West,12.7,21.9,N/A,,Clear,260,2013-03-02 03:35:00
8:55 PM,44.6,24.8,46,30.25,10.0,West,15.0,20.7,N/A,,Partly Cloudy,260,2013-03-02 03:55:00
9:15 PM,46.4,24.8,43,30.26,10.0,West,13.8,26.5,N/A,,Scattered Clouds,270,2013-03-02 04:15:00
9:35 PM,46.4,24.8,43,30.25,10.0,WSW,23.0,31.1,N/A,,Scattered Clouds,250,2013-03-02 04:35:00
9:55 PM,46.4,24.8,43,30.25,10.0,West,23.0,31.1,N/A,,Partly Cloudy,260,2013-03-02 04:55:00
10:15 PM,46.4,24.8,43,30.25,10.0,West,18.4,31.1,N/A,,Partly Cloudy,260,2013-03-02 05:15:00
10:35 PM,46.4,24.8,43,30.25,10.0,West,21.9,31.1,N/A,,Clear,270,2013-03-02 05:35:00
10:55 PM,44.6,24.8,46,30.24,10.0,West,25.3,32.2,N/A,,Clear,260,2013-03-02 05:55:00
11:15 PM,44.6,24.8,46,30.24,10.0,West,21.9,29.9,N/A,,Clear,260,2013-03-02 06:15:00
11:35 PM,44.6,24.8,46,30.24,10.0,West,19.6,32.2,N/A,,Clear,270,2013-03-02 06:35:00
11:55 PM,44.6,24.8,46,30.23,10.0,West,23.0,31.1,N/A,,Clear,260,2013-03-02 06:55:00